Location: White Mills Observatory
(37.5374°N, 86.0303°W)
Time: 00:37:27
(UTC-04:00)

Amateur Radio Satellites - All Passes

Search period start: 29 July 2014 00:07
Search period end: 30 July 2014 00:07
Location: White Mills Observatory, 37.5374°N, 86.0303°W

Satellite Date Start Highest point End Downlink Frequencies (MHz)
Time Altitude Azimuth
SO-50 29 Jul 00:21:05 00:22:18 11° 253° (WSW) 00:23:31 436.795 FM
ISS 29 Jul 00:28:10 00:31:30 90° 308° (NW) 00:34:51 145.800 FM
FUNcube-1 29 Jul 00:37:28 00:39:51 14° 267° (W) 00:42:12 145.950 - 145.970 MHz USB
UOSAT-12 29 Jul 00:39:55 00:44:40 88° 239° (WSW) 00:49:20 437.025 FM, 437.400 FM
Sapphire 29 Jul 00:44:05 00:48:08 22° 106° (ESE) 00:52:12 437.095 MHz 1200 baud AX-25 AFSK
RS-15 29 Jul 00:48:33 00:59:11 55° 249° (WSW) 01:10:16 29.354 - 29.394 USB, Beacon 29.352 USB
PCSat 29 Jul 01:16:10 01:21:19 48° 112° (ESE) 01:26:31 145.825 MHz
ISS 29 Jul 02:06:34 02:08:37 15° 337° (NNW) 02:10:42 145.800 FM
AO-40 29 Jul 02:08:30 04:08:55 18° 116° (ESE) 05:14:35 Beacon 2401.320
Sapphire 29 Jul 02:26:02 02:31:12 46° 302° (WNW) 02:36:24 437.095 MHz 1200 baud AX-25 AFSK
Oscar 19 29 Jul 02:51:45 02:56:37 40° 98° (E) 03:01:28 437.125 CW, 437.150 USB
PCSat 29 Jul 03:00:40 03:04:58 24° 309° (NW) 03:09:18 145.825 MHz
AO-Echo 29 Jul 03:09:22 03:13:37 27° 95° (E) 03:17:43 ?
Oscar 16 29 Jul 03:19:54 03:25:06 81° 103° (ESE) 03:30:16 437.025 USB, Beacon 2401.1428
OPAL 29 Jul 03:26:10 03:27:35 11° 59° (ENE) 03:29:01 ?
JAS-1B 29 Jul 03:28:43 03:36:49 34° 92° (E) 03:43:49 435.800 - 435.900 CW/SSB
ITAMSAT 1 29 Jul 03:40:45 03:45:49 54° 101° (E) 03:50:51 435.822 SSB
Oscar 10/S400 29 Jul 03:44:19 04:41:28 63° 205° (SSW) 13:15:08 145.825 - 145.975 CW/USB, Beacon 145.810 USB
TMSAT-1 29 Jul 03:58:30 04:02:39 23° 94° (E) 04:06:47 436.925 FM
AO-27 29 Jul 03:59:52 04:05:05 85° 104° (ESE) 04:10:15 436.795 MHz FM
Uribyol 2 29 Jul 04:00:08 04:05:20 89° 104° (ESE) 04:10:29 436.500 FM
Gurwin Techsat 1B 29 Jul 04:22:05 04:27:18 55° 100° (E) 04:32:29 435.225 FM
Oscar 19 29 Jul 04:31:43 04:35:41 23° 294° (WNW) 04:39:39 437.125 CW, 437.150 USB
AO-Echo 29 Jul 04:47:57 04:52:20 31° 291° (WNW) 04:56:36 ?
AO-7 29 Jul 04:47:58 04:53:41 20° 93° (E) 04:59:22 29.400 - 29.500 MHz
OPAL 29 Jul 05:00:49 05:05:46 82° 255° (WSW) 05:10:44 ?
Oscar 16 29 Jul 05:01:54 05:03:44 12° 299° (WNW) 05:05:33 437.025 USB, Beacon 2401.1428
Uosat F 29 Jul 05:06:33 05:10:21 22° 95° (E) 05:14:08 435.120 FM
JAS-1B 29 Jul 05:18:38 05:27:36 53° 293° (WNW) 05:35:19 435.800 - 435.900 CW/SSB
ITAMSAT 1 29 Jul 05:21:31 05:24:51 18° 296° (WNW) 05:28:10 435.822 SSB
ISS 29 Jul 05:23:20 05:24:36 12° 18° (NNE) 05:25:52 145.800 FM
KITSAT 1 29 Jul 05:28:29 05:32:44 15° 100° (E) 05:36:58 435.175 FM
TMSAT-1 29 Jul 05:37:46 05:42:40 39° 290° (WNW) 05:47:32 436.925 FM
AO-27 29 Jul 05:42:18 05:43:50 11° 300° (WNW) 05:45:22 436.795 MHz FM
Uribyol 2 29 Jul 05:42:57 05:44:01 11° 300° (WNW) 05:45:04 436.500 FM
PANSAT 29 Jul 05:49:12 05:51:35 16° 167° (SSE) 05:53:58 not established
Gurwin Techsat 1B 29 Jul 06:03:21 06:06:47 18° 296° (WNW) 06:10:13 435.225 FM
AO-7 29 Jul 06:38:51 06:47:11 78° 290° (WNW) 06:55:27 29.400 - 29.500 MHz
Uosat F 29 Jul 06:44:36 06:49:14 39° 290° (WNW) 06:53:51 435.120 FM
ISS 29 Jul 06:58:41 07:01:58 49° 36° (NE) 07:05:14 145.800 FM
MaSat-1 29 Jul 07:00:34 07:05:03 27° 56° (NE) 07:09:19 437.345 MHz
JAS-2 29 Jul 07:04:09 07:08:32 22° 92° (E) 07:12:37 435.800 - 435.900 CW/SSB, 435.910 FM
JAS-1B 29 Jul 07:13:12 07:15:41 11° 314° (NW) 07:18:06 435.800 - 435.900 CW/SSB
KITSAT 1 29 Jul 07:18:50 07:26:57 87° 117° (ESE) 07:35:06 435.175 FM
STRAND 1 29 Jul 07:24:01 07:29:03 56° 73° (ENE) 07:34:05 ?
Hamsat 29 Jul 07:27:20 07:31:32 50° 99° (E) 07:35:45 145.90 MHz
PANSAT 29 Jul 07:28:13 07:31:12 21° 180° (S) 07:34:10 not established
SO-67 29 Jul 07:52:05 07:52:43 10° 92° (E) 07:53:20 435.3500 MHz FM
Saudisat 1A 29 Jul 08:04:36 08:08:47 44° 116° (ESE) 08:13:00 436.775 MHz
AO-7 29 Jul 08:33:58 08:38:38 17° 309° (NW) 08:43:17 29.400 - 29.500 MHz
ISS 29 Jul 08:36:22 08:38:23 15° 231° (SW) 08:40:24 145.800 FM
MaSat-1 29 Jul 08:37:38 08:42:29 38° 254° (WSW) 08:47:01 437.345 MHz
JAS-2 29 Jul 08:48:24 08:53:55 42° 291° (WNW) 08:58:55 435.800 - 435.900 CW/SSB, 435.910 FM
Hamsat 29 Jul 09:04:59 09:07:03 13° 294° (WNW) 09:09:08 145.90 MHz
STRAND 1 29 Jul 09:05:36 09:08:33 15° 268° (W) 09:11:31 ?
PANSAT 29 Jul 09:08:29 09:10:48 15° 193° (SSW) 09:13:08 not established
HO-68 29 Jul 09:13:08 09:15:10 11° 89° (E) 09:17:11 435.675 MHz FM
KITSAT 1 29 Jul 09:17:13 09:23:22 23° 318° (NW) 09:29:34 435.175 FM
SO-67 29 Jul 09:22:43 09:25:56 36° 286° (WNW) 09:29:08 435.3500 MHz FM
Sapphire 29 Jul 09:34:01 09:36:56 14° 45° (NE) 09:39:50 437.095 MHz 1200 baud AX-25 AFSK
Saudisat 1A 29 Jul 09:45:20 09:48:34 20° 312° (NW) 09:51:50 436.775 MHz
PCSat 29 Jul 10:06:18 10:10:53 27° 52° (NE) 10:15:25 145.825 MHz
Oscar 11 29 Jul 10:29:15 10:31:47 15° 93° (E) 10:34:20 145.825 FM, Beacon 2401.500 USB
HO-68 29 Jul 10:56:38 11:03:48 80° 105° (ESE) 11:10:56 435.675 MHz FM
Sapphire 29 Jul 11:15:39 11:21:06 88° 244° (WSW) 11:26:31 437.095 MHz 1200 baud AX-25 AFSK
UKube-1 29 Jul 11:19:00 11:23:21 71° 285° (WNW) 11:27:40 145.840 MHz, 145.915 MHz
PCSat 29 Jul 11:49:20 11:54:24 41° 249° (WSW) 11:59:25 145.825 MHz
Oscar 11 29 Jul 12:04:04 12:08:08 41° 287° (WNW) 12:12:13 145.825 FM, Beacon 2401.500 USB
FUNcube-1 29 Jul 12:26:14 12:30:22 65° 285° (WNW) 12:34:33 145.950 - 145.970 MHz USB
HO-68 29 Jul 12:46:01 12:50:40 19° 302° (WNW) 12:55:19 435.675 MHz FM
SO-50 29 Jul 12:51:06 12:55:12 38° 114° (ESE) 12:59:23 436.795 FM
RS-15 29 Jul 12:59:13 13:08:15 30° 104° (ESE) 13:17:05 29.354 - 29.394 USB, Beacon 29.352 USB
Oscar 16 29 Jul 13:00:14 13:01:30 11° 60° (ENE) 13:02:45 437.025 USB, Beacon 2401.1428
Uribyol 2 29 Jul 13:40:11 13:42:28 13° 61° (ENE) 13:44:44 436.500 FM
AO-27 29 Jul 13:40:20 13:42:27 13° 61° (ENE) 13:44:35 436.795 MHz FM
Oscar 19 29 Jul 14:06:46 14:11:39 48° 72° (ENE) 14:16:33 437.125 CW, 437.150 USB
JAS-1B 29 Jul 14:09:42 14:16:58 28° 58° (ENE) 14:24:44 435.800 - 435.900 CW/SSB
AO-Echo 29 Jul 14:19:56 14:24:32 31° 69° (ENE) 14:29:09 ?
SO-50 29 Jul 14:32:20 14:35:52 23° 312° (NW) 14:39:28 436.795 FM
Oscar 16 29 Jul 14:34:58 14:40:05 86° 257° (WSW) 14:45:14 437.025 USB, Beacon 2401.1428
UOSAT-12 29 Jul 14:49:17 14:53:36 44° 115° (ESE) 14:58:02 437.025 FM, 437.400 FM
ITAMSAT 1 29 Jul 14:56:45 15:01:55 67° 74° (ENE) 15:07:06 435.822 SSB
RS-15 29 Jul 15:08:33 15:19:39 70° 304° (WNW) 15:30:35 29.354 - 29.394 USB, Beacon 29.352 USB
KITSAT 1 29 Jul 15:14:45 15:21:48 32° 48° (NE) 15:28:49 435.175 FM
AO-27 29 Jul 15:16:03 15:21:16 78° 257° (WSW) 15:26:31 436.795 MHz FM
Uribyol 2 29 Jul 15:16:04 15:21:16 75° 257° (WSW) 15:26:28 436.500 FM
TMSAT-1 29 Jul 15:17:19 15:21:54 31° 68° (ENE) 15:26:29 436.925 FM
Gurwin Techsat 1B 29 Jul 15:41:11 15:46:28 72° 75° (ENE) 15:51:46 435.225 FM
AO-7 29 Jul 15:45:03 15:51:33 26° 57° (ENE) 15:58:02 29.400 - 29.500 MHz
Oscar 19 29 Jul 15:47:48 15:51:13 18° 267° (W) 15:54:39 437.125 CW, 437.150 USB
JAS-1B 29 Jul 15:57:39 16:06:22 75° 258° (WSW) 16:16:15 435.800 - 435.900 CW/SSB
AO-Echo 29 Jul 15:58:33 16:03:11 31° 264° (W) 16:07:52 ?
Uosat F 29 Jul 16:18:00 16:22:05 25° 67° (ENE) 16:26:11 435.120 FM
UOSAT-12 29 Jul 16:30:24 16:33:57 22° 312° (NW) 16:37:34 437.025 FM, 437.400 FM
Saudisat 1A 29 Jul 16:33:33 16:37:02 22° 49° (NE) 16:40:29 436.775 MHz
ITAMSAT 1 29 Jul 16:39:32 16:41:50 13° 269° (W) 16:44:09 435.822 SSB
TMSAT-1 29 Jul 16:57:06 17:01:44 30° 264° (W) 17:06:23 436.925 FM
KITSAT 1 29 Jul 17:09:44 17:17:38 60° 247° (WSW) 17:25:29 435.175 FM
OPAL 29 Jul 17:12:50 17:17:19 30° 99° (E) 17:21:49 ?
JAS-2 29 Jul 17:16:12 17:18:59 12° 57° (ENE) 17:21:42 435.800 - 435.900 CW/SSB, 435.910 FM
Gurwin Techsat 1B 29 Jul 17:24:49 17:26:55 12° 270° (W) 17:29:02 435.225 FM
RS-15 29 Jul 17:26:23 17:34:27 22° 331° (NNW) 17:42:31 29.354 - 29.394 USB, Beacon 29.352 USB
AO-7 29 Jul 17:35:16 17:43:35 70° 255° (WSW) 17:51:57 29.400 - 29.500 MHz
JAS-1B 29 Jul 17:54:05 17:58:27 14° 277° (W) 18:03:03 435.800 - 435.900 CW/SSB
Uosat F 29 Jul 17:56:08 18:00:41 34° 262° (W) 18:05:16 435.120 FM
Saudisat 1A 29 Jul 18:12:39 18:16:43 37° 246° (WSW) 18:20:44 436.775 MHz
Hamsat 29 Jul 18:19:17 18:22:50 27° 71° (ENE) 18:26:24 145.90 MHz
OPAL 29 Jul 18:51:44 18:56:05 30° 294° (WNW) 19:00:29 ?
JAS-2 29 Jul 18:55:06 19:02:50 67° 73° (ENE) 19:10:06 435.800 - 435.900 CW/SSB, 435.910 FM
AO-7 29 Jul 19:36:12 19:37:39 11° 272° (W) 19:39:05 29.400 - 29.500 MHz
STRAND 1 29 Jul 19:37:27 19:41:22 22° 95° (E) 19:45:15 ?
RS-15 29 Jul 19:47:09 19:52:54 15° 8° (N) 19:58:41 29.354 - 29.394 USB, Beacon 29.352 USB
SO-67 29 Jul 19:53:39 19:56:59 47° 75° (ENE) 20:00:20 435.3500 MHz FM
Hamsat 29 Jul 19:55:36 19:58:46 21° 266° (W) 20:01:58 145.90 MHz
JAS-2 29 Jul 20:42:13 20:48:08 24° 267° (W) 20:53:53 435.800 - 435.900 CW/SSB, 435.910 FM
MaSat-1 29 Jul 20:52:16 20:53:51 12° 98° (E) 20:55:31 437.345 MHz
STRAND 1 29 Jul 21:15:56 21:20:39 39° 290° (WNW) 21:25:20 ?
HO-68 29 Jul 21:22:50 21:29:39 49° 68° (ENE) 21:36:29 435.675 MHz FM
SO-50 29 Jul 21:24:33 21:28:24 24° 49° (NE) 21:32:17 436.795 FM
RS-15 29 Jul 22:00:17 22:10:06 35° 42° (NE) 22:20:09 29.354 - 29.394 USB, Beacon 29.352 USB
UKube-1 29 Jul 22:12:21 22:16:42 78° 76° (ENE) 22:21:06 145.840 MHz, 145.915 MHz
MaSat-1 29 Jul 22:26:29 22:30:24 52° 298° (WNW) 22:34:59 437.345 MHz
Oscar 11 29 Jul 22:56:46 23:01:02 68° 259° (WSW) 23:05:20 145.825 FM, Beacon 2401.500 USB
SO-50 29 Jul 23:04:37 23:09:06 41° 245° (WSW) 23:13:37 436.795 FM
HO-68 29 Jul 23:11:29 23:17:31 29° 264° (W) 23:23:36 435.675 MHz FM
FUNcube-1 29 Jul 23:20:33 23:24:53 77° 76° (ENE) 23:29:08 145.950 - 145.970 MHz USB
UOSAT-12 29 Jul 23:20:59 23:24:53 25° 49° (NE) 23:28:43 437.025 FM, 437.400 FM
ISS 29 Jul 23:39:32 23:42:44 46° 135° (SE) 23:45:57 145.800 FM
